Theta_e
344 342 342 345 343 345 344 342 344 343 343 343 341 340 345 345 345 345 346 346 347 348 349 349 348 348 346 344 342 342 342 342 343 343 343 343 342 341
342 341 344 347 345 343 345 338 340 343 345 344 340 343 341 343 346 346 347 347 347 348 348 348 349 346 345 345 344 344 344 344 344 344 344 344 344 343
341 343 344 344 343 343 344 346 343 344 344 344 341 345 340 341 347 346 347 347 348 348 346 347 347 346 348 348 346 345 345 345 344 344 344 344 344 343
342 345 345 343 345 345 343 344 345 347 345 345 344 343 346 344 345 347 348 348 349 350 349 350 347 347 349 349 348 346 346 345 343 344 344 344 345 344
343 344 342 346 346 343 346 344 345 345 347 345 347 345 345 347 347 348 349 348 347 347 348 345 345 345 346 349 348 348 346 345 345 345 344 343 343 343
345 345 343 342 346 345 344 345 344 346 347 345 343 342 344 341 348 348 349 347 349 346 348 347 349 349 348 347 346 349 349 348 348 348 349 348 347 345
343 342 343 342 342 344 344 345 345 347 346 345 345 345 344 346 347 348 347 346 347 350 350 349 349 348 347 347 347 346 345 346 346 347 348 349 349 348
340 341 344 342 341 343 346 346 345 347 349 346 345 344 345 344 346 348 348 348 347 347 347 345 346 346 345 344 346 345 347 348 348 347 346 346 347 345
341 342 340 339 341 342 342 344 346 345 345 344 347 347 347 344 346 347 348 348 347 347 347 348 348 348 347 345 342 341 343 341 341 344 346 346 346 346
343 343 343 339 342 343 344 344 343 345 346 345 344 345 346 348 348 343 343 343 342 340 338 339 339 338 341 341 343 343 341 341 345 347 346 345 344 342
344 342 344 344 340 345 345 346 345 343 342 345 345 345 346 348 348 348 345 343 340 339 343 347 345 343 344 345 344 343 343 343 344 345 343 341 338 335
347 346 343 341 344 344 344 344 345 342 340 338 341 343 345 345 346 344 342 344 347 347 345 345 345 346 347 347 345 344 344 344 343 341 339 337 335 325
346 346 343 345 343 343 344 345 345 344 345 344 343 341 341 346 344 342 342 343 343 344 344 346 345 345 347 346 345 345 344 343 342 341 339 333 324 318
344 341 344 343 344 343 344 343 345 345 346 347 346 342 338 344 343 341 342 343 343 344 344 347 347 345 346 345 344 345 345 344 341 339 333 324 318 319
329 329 331 335 339 339 339 340 343 346 347 347 345 338 337 337 341 342 344 345 344 343 342 346 348 345 345 344 344 343 343 342 340 332 325 319 318 318
333 326 334 327 338 334 338 339 340 342 345 344 341 338 343 342 340 340 342 344 344 345 344 344 346 342 345 343 342 343 343 339 326 321 319 317 317 313
333 330 326 327 327 329 334 340 338 338 341 342 341 343 345 344 343 339 339 340 344 345 344 345 345 345 344 334 333 329 324 323 321 320 318 316 314 311
331 332 332 332 333 334 333 337 342 337 337 339 341 345 344 342 343 341 340 341 342 341 343 344 343 344 335 330 327 323 320 321 321 322 325 318 315 313
333 331 330 331 330 331 332 335 341 339 334 340 343 343 343 343 344 343 342 341 342 340 343 344 343 341 333 329 327 324 319 317 320 327 327 318 317 316
334 334 330 330 331 332 334 338 339 340 341 340 343 343 343 344 345 345 344 344 343 342 341 344 344 341 336 329 328 328 324 324 327 329 328 321 319 318
336 335 334 333 331 330 332 338 338 340 343 342 341 343 343 344 345 345 343 342 341 342 340 343 341 338 335 332 331 329 327 325 326 326 326 324 322 322
335 335 331 330 332 332 332 337 344 343 343 342 341 343 344 345 344 339 338 339 341 340 340 340 339 335 332 331 330 330 327 324 324 324 323 320 321 323
334 334 331 332 334 332 332 332 337 340 341 343 341 342 344 339 338 338 339 340 339 339 341 339 339 333 329 327 330 329 328 325 325 325 324 323 322 321
Wind_Speed
10 10 11 13 11 11 10 10 9 6 10 9 11 15 20 23 21 24 19 20 19 15 14 14 16 17 17 17 16 17 18 18 18 18 18 18 18 18
15 15 15 12 12 11 8 7 11 13 14 12 11 11 13 17 19 19 17 16 18 17 15 14 15 17 17 17 17 17 17 18 18 18 18 19 20 20
18 17 15 14 13 14 14 12 12 14 15 13 14 12 9 13 14 14 17 16 15 15 15 14 15 15 15 17 18 17 17 18 18 19 19 19 20 20
19 19 17 15 15 15 17 15 13 13 14 12 12 14 10 8 11 12 12 14 17 15 16 15 15 16 15 15 15 17 18 18 19 19 19 19 20 20
23 21 21 20 20 19 18 19 18 16 17 16 14 12 11 8 10 10 12 13 11 12 13 14 15 16 16 15 15 15 16 16 16 16 17 18 20 21
27 24 22 23 21 19 21 21 18 17 18 20 21 18 15 18 16 15 14 12 10 10 12 13 14 15 15 17 16 17 18 18 18 19 20 20 21 22
30 27 26 25 25 23 22 21 20 19 18 20 21 19 16 17 20 16 17 16 15 17 16 16 16 13 13 14 16 17 19 20 22 22 22 24 26 28
32 29 28 25 27 26 26 25 23 22 20 20 19 19 18 18 16 15 15 13 14 16 18 19 18 15 15 17 19 20 21 20 22 25 26 26 26 26
33 32 31 29 27 28 28 28 26 24 22 20 21 19 17 16 15 16 18 17 16 15 15 18 18 20 21 23 23 24 25 25 23 22 23 23 23 23
32 33 32 30 29 29 30 29 28 28 26 25 25 22 19 18 18 19 21 24 25 23 23 27 27 27 25 26 25 23 22 21 21 22 22 23 22 22
34 34 32 30 32 28 29 28 28 25 25 27 28 26 23 23 20 21 22 23 25 24 20 23 24 24 25 26 24 23 22 22 22 21 20 19 20 23
37 35 34 34 31 29 29 29 29 28 23 23 23 26 27 23 21 21 20 22 23 24 22 22 21 21 23 25 23 22 20 19 19 18 19 20 24 26
36 36 36 36 37 33 33 33 35 30 27 26 27 27 26 26 26 25 25 25 25 25 24 22 23 21 19 22 20 19 18 19 19 20 21 23 24 24
23 12 19 21 33 36 36 37 35 35 33 32 32 32 30 31 29 26 26 25 25 23 21 22 23 21 20 21 21 20 20 21 21 21 22 22 21 21
38 42 41 36 31 33 39 38 34 34 37 38 38 34 32 31 30 29 26 26 27 27 26 26 24 21 22 24 24 23 21 22 21 20 19 16 15 13
21 25 57 49 38 38 38 42 40 35 34 36 37 33 29 29 28 27 27 29 30 30 28 25 25 21 22 22 24 25 24 20 16 12 13 12 8 6
24 27 39 46 41 45 39 41 43 38 36 34 34 33 29 27 27 27 28 28 29 29 27 26 23 23 22 21 21 22 21 19 15 14 11 9 7 6
27 34 44 46 42 41 36 34 41 40 37 34 34 33 33 32 29 27 28 30 30 30 26 26 22 22 19 19 18 17 18 17 15 14 11 10 9 8
26 28 32 34 35 37 43 36 36 39 37 35 34 31 35 34 31 30 30 31 31 30 26 26 25 22 21 21 15 13 17 15 15 16 12 10 10 11
32 28 29 34 38 30 37 40 39 35 38 38 33 33 34 34 33 34 34 34 32 30 28 27 26 25 24 19 13 11 12 15 14 15 13 11 11 12
33 34 33 38 41 43 35 31 37 35 34 36 35 35 35 35 35 35 34 33 32 30 30 28 23 20 19 18 20 16 12 13 13 11 13 15 15 16
32 33 29 27 33 32 30 29 30 31 32 32 32 33 36 36 34 32 30 30 31 30 28 24 21 21 23 24 24 19 13 12 12 13 14 16 17 17
25 28 25 18 20 28 35 32 32 33 36 30 32 33 29 31 30 28 30 29 29 29 27 27 24 23 23 25 24 22 18 16 15 16 17 20 21 19
Wind_Direction
251 253 261 270 261 268 300 231 236 238 272 304 272 258 247 250 248 246 251 238 251 249 244 255 263 261 260 262 263 264 268 271 275 278 282 284 283 281
249 249 252 251 254 256 272 248 250 259 272 286 265 296 255 254 242 239 241 246 248 246 246 249 257 260 258 260 262 265 269 272 274 276 278 279 278 277
245 245 243 249 244 250 251 260 259 263 270 293 274 291 298 252 236 245 235 243 245 245 249 258 258 250 260 262 261 263 267 269 271 273 274 275 278 279
245 245 244 245 240 245 250 260 258 259 264 282 282 290 287 270 233 225 234 252 244 248 254 259 252 249 258 268 265 263 265 266 268 272 276 276 276 277
246 247 252 250 245 240 248 252 260 257 264 271 283 275 275 270 257 248 244 251 243 247 247 254 251 259 258 263 264 264 265 266 267 271 273 275 275 275
249 248 256 248 248 244 242 243 248 256 255 262 269 269 269 261 265 258 255 250 261 261 258 257 259 270 266 255 257 261 263 267 271 273 272 273 273 273
250 253 251 250 244 245 246 240 244 250 261 262 262 260 254 250 255 262 263 264 261 256 261 265 268 278 261 268 273 271 266 267 273 271 273 274 274 276
246 249 247 253 244 241 244 244 247 245 252 258 264 263 264 264 257 260 269 279 271 261 261 265 272 273 271 274 276 275 269 266 273 276 277 279 280 282
248 247 247 250 245 243 246 247 247 246 249 252 256 256 265 266 269 261 262 267 271 276 275 272 270 273 278 279 279 273 271 275 279 279 279 280 282 283
248 248 250 248 246 245 249 248 249 249 250 253 255 257 261 270 273 266 261 263 269 270 272 274 277 277 277 277 277 276 275 276 277 280 280 281 284 285
244 244 247 249 242 242 242 244 247 249 248 250 256 261 263 258 258 261 260 266 270 271 270 274 278 283 281 277 275 273 272 274 274 275 278 281 287 294
247 246 246 248 246 241 240 243 246 246 251 256 259 260 261 257 255 257 263 263 266 271 272 275 282 282 280 275 271 270 268 269 271 273 280 288 295 299
247 252 250 251 249 249 250 250 247 248 252 260 265 268 259 253 253 252 255 260 258 262 273 278 282 279 268 264 269 272 271 270 272 278 287 294 299 304
209 212 244 257 261 253 246 248 253 251 256 259 265 266 254 249 252 258 261 261 259 262 265 263 266 269 261 261 267 268 271 274 276 282 288 294 302 309
283 292 267 270 256 263 253 246 242 251 253 258 262 261 253 250 254 260 259 254 252 255 260 259 258 265 260 265 267 269 269 274 276 276 281 289 302 309
243 263 254 259 240 253 258 250 242 239 248 255 256 256 253 248 247 254 257 255 254 254 255 249 248 260 259 265 261 260 266 267 268 268 279 288 292 311
252 243 243 246 251 252 252 248 243 239 241 244 249 250 244 241 244 251 257 253 249 249 247 241 244 253 259 258 254 258 261 259 256 253 261 265 259 282
244 253 252 249 253 245 252 254 245 238 237 242 242 242 243 241 245 251 256 252 249 252 240 241 247 241 244 246 253 258 251 248 241 241 256 263 260 264
255 263 251 246 248 253 252 254 252 241 235 237 240 245 240 239 244 250 255 250 250 246 234 240 241 233 234 242 251 255 247 241 235 243 257 266 268 260
248 253 250 244 238 246 246 246 249 252 237 231 235 237 238 240 244 251 251 247 246 239 233 237 232 233 235 241 242 257 244 229 241 252 248 265 268 264
255 251 256 255 253 257 257 254 246 243 234 230 230 234 239 241 247 251 248 246 239 231 233 232 238 244 241 236 234 242 253 250 244 243 244 261 264 268
266 261 263 258 248 250 249 248 251 249 237 231 231 232 237 242 244 242 237 232 224 230 237 230 239 233 231 232 235 238 238 236 234 242 252 254 257 259
271 261 260 266 278 251 245 243 244 252 254 236 236 235 229 234 233 232 229 229 228 229 222 222 234 233 239 234 237 236 234 237 243 254 267 267 257 258